StationID,Date,MaxTemp,MinTemp,Precipitation,Snowfall,SnowDepth
"CA007024118","1973-01-01",39.02,32.00,0.00,0.00,
"CA007024118","1973-01-02",24.98,17.96,0.00,0.00,
"CA007024118","1973-01-03",30.92,10.94,28.00,28.00,
"CA007024118","1973-01-04",39.02,15.08,33.00,0.00,
"CA007024118","1973-01-05",33.98,24.98,13.00,13.00,
"CA007024118","1973-01-06",3.92,-5.08,0.00,0.00,
"CA007024118","1973-01-07",-2.02,-7.06,0.00,0.00,
"CA007024118","1973-01-08",-4.00,-14.08,0.00,0.00,
"CA007024118","1973-01-09",17.06,-11.02,13.00,13.00,
"CA007024118","1973-01-10",21.02,6.98,13.00,13.00,
"CA007024118","1973-01-11",23.00,15.08,0.00,0.00,
"CA007024118","1973-01-12",6.08,-4.00,5.00,5.00,
"CA007024118","1973-01-13",21.02,-9.04,0.00,0.00,
"CA007024118","1973-01-14",33.98,8.96,28.00,28.00,
"CA007024118","1973-01-15",33.98,26.06,0.00,0.00,
"CA007024118","1973-01-16",39.02,24.98,0.00,0.00,
"CA007024118","1973-01-17",41.00,35.06,0.00,0.00,
"CA007024118","1973-01-18",39.02,24.08,0.00,0.00,
"CA007024118","1973-01-19",48.02,32.00,81.00,15.00,
"CA007024118","1973-01-20",28.94,21.02,0.00,0.00,
"CA007024118","1973-01-21",17.96,8.06,0.00,0.00,
"CA007024118","1973-01-22",42.08,8.96,284.00,0.00,
"CA007024118","1973-01-23",41.00,32.00,10.00,5.00,
"CA007024118","1973-01-24",33.08,26.06,0.00,0.00,
"CA007024118","1973-01-25",32.00,15.98,3.00,3.00,
"CA007024118","1973-01-26",35.06,26.96,0.00,0.00,
"CA007024118","1973-01-27",37.94,28.94,0.00,0.00,
"CA007024118","1973-01-28",30.92,19.04,114.00,114.00,
"CA007024118","1973-01-29",19.94,12.02,51.00,51.00,
"CA007024118","1973-01-30",12.92,-4.00,13.00,13.00,
"CA007024118","1973-01-31",,-20.92,0.00,0.00,
"CA007024118","1973-02-01",,,0.00,0.00,
"CA007024118","1973-02-02",,,399.00,0.00,
"CA007024118","1973-02-03",,,0.00,0.00,
"CA007024118","1973-02-04",,,0.00,0.00,
"CA007024118","1973-02-05",19.94,,0.00,0.00,
"CA007024118","1973-02-06",23.00,,0.00,0.00,
"CA007024118","1973-02-07",35.06,,20.00,20.00,
"CA007024118","1973-02-08",39.02,,51.00,51.00,
"CA007024118","1973-02-09",10.04,,3.00,3.00,
"CA007024118","1973-02-10",15.98,-5.08,0.00,0.00,
"CA007024118","1973-02-11",1.94,-7.96,0.00,0.00,
"CA007024118","1973-02-12",10.04,-7.06,0.00,0.00,
"CA007024118","1973-02-13",24.08,6.98,0.00,0.00,
"CA007024118","1973-02-14",28.94,12.92,178.00,178.00,
"CA007024118","1973-02-15",28.04,21.02,30.00,30.00,
"CA007024118","1973-02-16",10.04,3.02,0.00,0.00,
"CA007024118","1973-02-17",3.92,-11.92,0.00,0.00,
"CA007024118","1973-02-18",26.06,-4.00,0.00,0.00,
"CA007024118","1973-02-19",33.98,15.98,5.00,5.00,
"CA007024118","1973-02-20",37.04,33.08,28.00,5.00,
"CA007024118","1973-02-21",30.92,21.92,3.00,3.00,
"CA007024118","1973-02-22",28.94,24.08,20.00,20.00,
"CA007024118","1973-02-23",24.98,17.06,0.00,0.00,
"CA007024118","1973-02-24",24.98,12.02,0.00,0.00,
"CA007024118","1973-02-25",14.00,5.00,0.00,0.00,
"CA007024118","1973-02-26",17.06,-0.04,0.00,0.00,
"CA007024118","1973-02-27",3.92,-9.94,0.00,0.00,
"CA007024118","1973-02-28",19.04,-0.04,0.00,0.00,
"CA007024118","1973-03-01",21.92,8.96,163.00,163.00,
"CA007024118","1973-03-02",23.00,17.96,0.00,0.00,
"CA007024118","1973-03-03",39.02,19.04,127.00,0.00,
"CA007024118","1973-03-04",42.08,33.98,23.00,0.00,
"CA007024118","1973-03-05",33.98,28.04,0.00,0.00,
"CA007024118","1973-03-06",39.02,26.96,36.00,0.00,
"CA007024118","1973-03-07",46.94,35.96,0.00,0.00,
"CA007024118","1973-03-08",55.04,41.00,0.00,0.00,
"CA007024118","1973-03-09",33.08,28.04,0.00,0.00,
"CA007024118","1973-03-10",42.08,26.96,15.00,0.00,
"CA007024118","1973-03-11",,33.98,15.00,0.00,
"CA007024118","1973-03-12",48.02,,74.00,0.00,
"CA007024118","1973-03-13",39.92,32.00,0.00,0.00,
"CA007024118","1973-03-14",41.00,30.92,38.00,0.00,
"CA007024118","1973-03-15",50.00,33.98,38.00,0.00,
"CA007024118","1973-03-16",44.06,39.02,71.00,0.00,
"CA007024118","1973-03-17",42.08,33.98,366.00,5.00,
"CA007024118","1973-03-18",37.04,30.92,25.00,0.00,
"CA007024118","1973-03-19",39.92,32.00,,0.00,
"CA007024118","1973-03-20",30.02,24.98,,,
"CA007024118","1973-03-21",33.98,23.00,0.00,0.00,
"CA007024118","1973-03-22",37.04,26.06,0.00,0.00,
"CA007024118","1973-03-23",44.06,24.98,0.00,0.00,
"CA007024118","1973-03-24",46.94,30.02,0.00,0.00,
"CA007024118","1973-03-25",51.08,33.08,0.00,0.00,
"CA007024118","1973-03-26",51.08,39.02,0.00,0.00,
"CA007024118","1973-03-27",37.94,26.06,0.00,0.00,
"CA007024118","1973-03-28",51.98,24.98,0.00,0.00,
"CA007024118","1973-03-29",53.06,37.04,5.00,0.00,
"CA007024118","1973-03-30",55.04,41.00,0.00,0.00,
"CA007024118","1973-03-31",55.94,39.02,0.00,0.00,
"CA007024118","1973-04-01",,39.02,241.00,0.00,
"CA007024118","1973-04-02",,35.96,102.00,0.00,
"CA007024118","1973-04-03",,33.98,18.00,0.00,
"CA007024118","1973-04-04",,35.06,157.00,38.00,
"CA007024118","1973-04-05",,32.00,5.00,0.00,
"CA007024118","1973-04-06",,32.00,0.00,0.00,
"CA007024118","1973-04-07",,30.02,0.00,0.00,
"CA007024118","1973-04-08",,30.92,0.00,0.00,
"CA007024118","1973-04-09",,24.98,5.00,5.00,
"CA007024118","1973-04-10",,28.94,132.00,56.00,
"CA007024118","1973-04-11",,24.08,0.00,0.00,
"CA007024118","1973-04-12",30.92,23.00,0.00,0.00,
"CA007024118","1973-04-13",37.04,17.96,0.00,0.00,
"CA007024118","1973-04-14",46.04,24.98,0.00,0.00,
"CA007024118","1973-04-15",60.08,35.06,0.00,0.00,
"CA007024118","1973-04-16",73.94,35.06,8.00,0.00,
"CA007024118","1973-04-17",60.08,44.96,0.00,0.00,
"CA007024118","1973-04-18",68.00,42.98,0.00,0.00,
"CA007024118","1973-04-19",66.92,42.98,0.00,0.00,
"CA007024118","1973-04-20",66.02,37.94,0.00,0.00,
"CA007024118","1973-04-21",73.04,42.98,13.00,0.00,
"CA007024118","1973-04-22",78.98,53.96,15.00,0.00,
"CA007024118","1973-04-23",57.92,50.00,0.00,0.00,
"CA007024118","1973-04-24",60.08,42.08,0.00,0.00,
"CA007024118","1973-04-25",57.02,42.08,0.00,0.00,
"CA007024118","1973-04-26",64.94,42.08,0.00,0.00,
"CA007024118","1973-04-27",55.04,46.94,20.00,0.00,
"CA007024118","1973-04-28",,,69.00,0.00,
"CA007024118","1973-04-29",44.06,39.92,0.00,0.00,
"CA007024118","1973-04-30",53.06,39.02,0.00,0.00,
"CA007024118","1973-05-01",60.08,37.04,43.00,0.00,
"CA007024118","1973-05-02",75.02,51.08,25.00,0.00,
"CA007024118","1973-05-03",66.92,51.98,127.00,0.00,
"CA007024118","1973-05-04",50.00,44.06,0.00,0.00,
"CA007024118","1973-05-05",50.00,41.00,5.00,0.00,
"CA007024118","1973-05-06",62.96,44.96,0.00,0.00,
"CA007024118","1973-05-07",62.96,41.00,13.00,0.00,
"CA007024118","1973-05-08",69.08,41.00,0.00,0.00,
"CA007024118","1973-05-09",62.96,41.00,112.00,0.00,
"CA007024118","1973-05-10",78.08,,112.00,0.00,
"CA007024118","1973-05-11",66.02,,48.00,10.00,
"CA007024118","1973-05-12",60.98,48.02,107.00,0.00,
"CA007024118","1973-05-13",51.98,44.06,0.00,0.00,
"CA007024118","1973-05-14",57.02,42.98,0.00,0.00,
"CA007024118","1973-05-15",60.08,42.08,0.00,0.00,
"CA007024118","1973-05-16",64.04,44.06,0.00,0.00,
"CA007024118","1973-05-17",59.00,44.96,79.00,0.00,
"CA007024118","1973-05-18",53.96,42.98,112.00,0.00,
"CA007024118","1973-05-19",55.94,46.04,86.00,0.00,
"CA007024118","1973-05-20",66.92,46.04,53.00,0.00,
"CA007024118","1973-05-21",53.96,48.92,36.00,0.00,
"CA007024118","1973-05-22",62.96,50.00,0.00,0.00,
"CA007024118","1973-05-23",69.08,44.06,0.00,0.00,
"CA007024118","1973-05-24",66.92,46.04,0.00,0.00,
"CA007024118","1973-05-25",64.94,46.94,0.00,0.00,
"CA007024118","1973-05-26",66.92,44.96,0.00,0.00,
"CA007024118","1973-05-27",71.06,48.92,33.00,0.00,
"CA007024118","1973-05-28",62.06,51.98,185.00,0.00,
"CA007024118","1973-05-29",60.98,57.02,15.00,0.00,
"CA007024118","1973-05-30",69.98,53.06,43.00,0.00,
"CA007024118","1973-05-31",62.96,55.04,56.00,0.00,
"CA007024118","1973-06-01",69.08,55.04,0.00,0.00,
"CA007024118","1973-06-02",60.98,48.02,0.00,0.00,
"CA007024118","1973-06-03",71.06,44.06,0.00,0.00,
"CA007024118","1973-06-04",62.96,51.98,13.00,0.00,
"CA007024118","1973-06-05",78.08,57.92,0.00,0.00,
"CA007024118","1973-06-06",82.94,66.02,107.00,0.00,
"CA007024118","1973-06-07",78.08,66.92,0.00,0.00,
"CA007024118","1973-06-08",82.04,59.00,0.00,0.00,
"CA007024118","1973-06-09",80.06,64.94,0.00,0.00,
"CA007024118","1973-06-10",77.00,59.00,28.00,0.00,
"CA007024118","1973-06-11",82.04,62.06,201.00,0.00,
"CA007024118","1973-06-12",78.98,64.94,33.00,0.00,
"CA007024118","1973-06-13",78.08,66.02,0.00,0.00,
"CA007024118","1973-06-14",73.94,59.00,38.00,0.00,
"CA007024118","1973-06-15",57.02,50.00,145.00,0.00,
"CA007024118","1973-06-16",53.96,48.02,99.00,0.00,
"CA007024118","1973-06-17",66.92,48.02,0.00,0.00,
"CA007024118","1973-06-18",71.06,50.00,0.00,0.00,
"CA007024118","1973-06-19",75.02,51.08,0.00,0.00,
"CA007024118","1973-06-20",84.02,57.92,38.00,0.00,
"CA007024118","1973-06-21",82.94,68.00,0.00,0.00,
"CA007024118","1973-06-22",80.06,64.94,10.00,0.00,
"CA007024118","1973-06-23",80.06,57.02,20.00,0.00,
"CA007024118","1973-06-24",82.94,59.00,66.00,0.00,
"CA007024118","1973-06-25",77.00,60.98,0.00,0.00,
"CA007024118","1973-06-26",84.92,60.08,0.00,0.00,
"CA007024118","1973-06-27",84.02,69.08,0.00,0.00,
"CA007024118","1973-06-28",84.92,66.92,0.00,0.00,
"CA007024118","1973-06-29",80.06,69.98,500.00,0.00,
"CA007024118","1973-06-30",80.06,64.94,0.00,0.00,
"CA007024118","1973-07-01",82.04,,0.00,0.00,
"CA007024118","1973-07-02",84.92,66.92,0.00,0.00,
"CA007024118","1973-07-03",84.92,69.98,0.00,0.00,
"CA007024118","1973-07-04",84.02,68.00,0.00,0.00,
"CA007024118","1973-07-05",78.98,66.92,10.00,0.00,
"CA007024118","1973-07-06",78.08,64.04,0.00,0.00,
"CA007024118","1973-07-07",86.00,64.94,0.00,0.00,
"CA007024118","1973-07-08",87.08,75.02,0.00,0.00,
"CA007024118","1973-07-09",87.08,73.94,0.00,0.00,
"CA007024118","1973-07-10",,68.00,145.00,0.00,
"CA007024118","1973-07-11",73.94,,0.00,0.00,
"CA007024118","1973-07-12",69.08,55.04,0.00,0.00,
"CA007024118","1973-07-13",80.06,57.92,0.00,0.00,
"CA007024118","1973-07-14",78.98,69.98,0.00,0.00,
"CA007024118","1973-07-15",75.92,62.96,64.00,0.00,
"CA007024118","1973-07-16",75.02,57.92,0.00,0.00,
"CA007024118","1973-07-17",80.06,55.04,0.00,0.00,
"CA007024118","1973-07-18",82.04,55.94,0.00,0.00,
"CA007024118","1973-07-19",84.92,62.06,117.00,0.00,
"CA007024118","1973-07-20",,,0.00,0.00,
"CA007024118","1973-07-21",80.96,62.96,0.00,0.00,
"CA007024118","1973-07-22",78.98,57.92,0.00,0.00,
"CA007024118","1973-07-23",80.96,57.02,0.00,0.00,
"CA007024118","1973-07-24",87.08,62.06,0.00,0.00,
"CA007024118","1973-07-25",87.98,66.02,325.00,0.00,
"CA007024118","1973-07-26",80.06,66.92,150.00,0.00,
"CA007024118","1973-07-27",84.92,71.06,0.00,0.00,
"CA007024118","1973-07-28",84.92,68.00,74.00,0.00,
"CA007024118","1973-07-29",78.08,66.92,0.00,0.00,
"CA007024118","1973-07-30",80.96,62.96,0.00,0.00,
"CA007024118","1973-07-31",86.00,66.92,0.00,0.00,
"CA007024118","1973-08-01",82.04,69.98,18.00,0.00,
"CA007024118","1973-08-02",78.08,69.98,13.00,0.00,
"CA007024118","1973-08-03",80.96,66.02,43.00,0.00,
"CA007024118","1973-08-04",80.96,64.94,0.00,0.00,
"CA007024118","1973-08-05",84.02,64.94,15.00,0.00,
"CA007024118","1973-08-06",75.02,64.94,152.00,0.00,
"CA007024118","1973-08-07",77.00,64.04,0.00,0.00,
"CA007024118","1973-08-08",80.06,69.98,23.00,0.00,
"CA007024118","1973-08-09",87.98,69.08,10.00,0.00,
"CA007024118","1973-08-10",86.00,73.04,0.00,0.00,
"CA007024118","1973-08-11",84.02,73.04,66.00,0.00,
"CA007024118","1973-08-12",78.98,64.94,0.00,0.00,
"CA007024118","1973-08-13",78.98,66.02,0.00,0.00,
"CA007024118","1973-08-14",78.98,66.02,20.00,0.00,
"CA007024118","1973-08-15",77.00,64.04,0.00,0.00,
"CA007024118","1973-08-16",80.96,60.08,0.00,0.00,
"CA007024118","1973-08-17",84.92,62.96,0.00,0.00,
"CA007024118","1973-08-18",87.08,64.94,56.00,0.00,
"CA007024118","1973-08-19",84.92,64.04,0.00,0.00,
"CA007024118","1973-08-20",84.02,64.04,0.00,0.00,
"CA007024118","1973-08-21",84.02,62.06,58.00,0.00,
"CA007024118","1973-08-22",62.96,57.02,0.00,0.00,
"CA007024118","1973-08-23",71.06,46.94,0.00,0.00,
"CA007024118","1973-08-24",69.98,53.96,0.00,0.00,
"CA007024118","1973-08-25",78.08,50.00,0.00,0.00,
"CA007024118","1973-08-26",77.00,64.04,0.00,0.00,
"CA007024118","1973-08-27",84.02,62.96,452.00,0.00,
"CA007024118","1973-08-28",86.00,64.94,0.00,0.00,
"CA007024118","1973-08-29",87.98,64.04,0.00,0.00,
"CA007024118","1973-08-30",89.96,73.04,0.00,0.00,
"CA007024118","1973-08-31",87.08,69.08,13.00,0.00,
"CA007024118","1973-09-01",87.08,69.98,0.00,0.00,
"CA007024118","1973-09-02",89.06,71.96,0.00,0.00,
"CA007024118","1973-09-03",87.08,73.94,0.00,0.00,
"CA007024118","1973-09-04",82.04,64.94,0.00,0.00,
"CA007024118","1973-09-05",87.08,68.00,673.00,0.00,
"CA007024118","1973-09-06",75.02,64.04,30.00,0.00,
"CA007024118","1973-09-07",66.02,53.06,0.00,0.00,
"CA007024118","1973-09-08",60.08,51.98,0.00,0.00,
"CA007024118","1973-09-09",60.98,48.02,0.00,0.00,
"CA007024118","1973-09-10",66.02,44.06,30.00,0.00,
"CA007024118","1973-09-11",71.06,55.04,0.00,0.00,
"CA007024118","1973-09-12",64.04,51.98,0.00,0.00,
"CA007024118","1973-09-13",64.04,46.94,0.00,0.00,
"CA007024118","1973-09-14",66.02,50.00,0.00,0.00,
"CA007024118","1973-09-15",68.00,51.98,0.00,0.00,
"CA007024118","1973-09-16",62.06,48.02,15.00,0.00,
"CA007024118","1973-09-17",57.02,39.92,178.00,0.00,
"CA007024118","1973-09-18",53.96,46.94,56.00,0.00,
"CA007024118","1973-09-19",64.94,42.08,15.00,0.00,
"CA007024118","1973-09-20",55.04,42.08,41.00,0.00,
"CA007024118","1973-09-21",55.04,35.96,0.00,0.00,
"CA007024118","1973-09-22",53.96,39.02,163.00,0.00,
"CA007024118","1973-09-23",53.96,44.96,5.00,0.00,
"CA007024118","1973-09-24",62.06,44.06,0.00,0.00,
"CA007024118","1973-09-25",66.02,48.02,0.00,0.00,
"CA007024118","1973-09-26",68.00,48.02,0.00,0.00,
"CA007024118","1973-09-27",75.02,55.94,0.00,0.00,
"CA007024118","1973-09-28",66.92,50.00,0.00,0.00,
"CA007024118","1973-09-29",66.02,53.06,0.00,0.00,
"CA007024118","1973-09-30",60.08,42.08,0.00,0.00,
"CA007024118","1973-10-01",69.08,42.08,0.00,0.00,
"CA007024118","1973-10-02",60.98,48.92,124.00,0.00,
"CA007024118","1973-10-03",62.96,57.02,175.00,0.00,
"CA007024118","1973-10-04",62.96,57.92,196.00,0.00,
"CA007024118","1973-10-05",62.96,53.06,51.00,0.00,
"CA007024118","1973-10-06",59.00,46.94,0.00,0.00,
"CA007024118","1973-10-07",59.00,39.02,0.00,0.00,
"CA007024118","1973-10-08",64.94,39.02,0.00,0.00,
"CA007024118","1973-10-09",69.08,44.06,0.00,0.00,
"CA007024118","1973-10-10",57.92,42.98,0.00,0.00,
"CA007024118","1973-10-11",66.92,39.02,0.00,0.00,
"CA007024118","1973-10-12",66.92,48.02,0.00,0.00,
"CA007024118","1973-10-13",73.94,51.08,79.00,0.00,
"CA007024118","1973-10-14",57.02,51.98,0.00,0.00,
"CA007024118","1973-10-15",55.94,48.02,0.00,0.00,
"CA007024118","1973-10-16",48.02,42.08,0.00,0.00,
"CA007024118","1973-10-17",48.92,42.08,0.00,0.00,
"CA007024118","1973-10-18",48.92,39.92,0.00,0.00,
"CA007024118","1973-10-19",51.08,33.98,0.00,0.00,
"CA007024118","1973-10-20",48.92,42.98,0.00,0.00,
"CA007024118","1973-10-21",48.92,35.06,0.00,0.00,
"CA007024118","1973-10-22",57.92,39.92,0.00,0.00,
"CA007024118","1973-10-23",64.94,46.04,0.00,0.00,
"CA007024118","1973-10-24",55.04,46.94,0.00,0.00,
"CA007024118","1973-10-25",68.00,41.00,0.00,0.00,
"CA007024118","1973-10-26",64.04,48.02,0.00,0.00,
"CA007024118","1973-10-27",44.96,39.92,0.00,0.00,
"CA007024118","1973-10-28",44.06,33.08,0.00,0.00,
"CA007024118","1973-10-29",53.06,35.06,0.00,0.00,
"CA007024118","1973-10-30",50.00,42.98,36.00,0.00,
"CA007024118","1973-10-31",48.92,44.96,56.00,0.00,
"CA007024118","1973-11-01",,42.08,46.00,0.00,
"CA007024118","1973-11-02",53.06,,58.00,0.00,
"CA007024118","1973-11-03",48.02,35.06,3.00,0.00,
"CA007024118","1973-11-04",37.04,33.08,0.00,0.00,
"CA007024118","1973-11-05",35.06,28.04,0.00,0.00,
"CA007024118","1973-11-06",28.04,24.98,0.00,0.00,
"CA007024118","1973-11-07",37.04,23.00,0.00,0.00,
"CA007024118","1973-11-08",42.98,33.98,0.00,0.00,
"CA007024118","1973-11-09",32.00,28.04,0.00,0.00,
"CA007024118","1973-11-10",33.98,21.92,0.00,0.00,
"CA007024118","1973-11-11",35.96,23.00,25.00,0.00,
"CA007024118","1973-11-12",46.04,,13.00,0.00,
"CA007024118","1973-11-13",44.96,35.06,104.00,0.00,
"CA007024118","1973-11-14",51.98,37.04,23.00,0.00,
"CA007024118","1973-11-15",37.94,33.08,46.00,46.00,
"CA007024118","1973-11-16",33.08,26.06,0.00,0.00,
"CA007024118","1973-11-17",33.98,24.98,0.00,0.00,
"CA007024118","1973-11-18",33.98,28.94,0.00,0.00,
"CA007024118","1973-11-19",33.98,23.00,0.00,0.00,
"CA007024118","1973-11-20",33.08,28.04,0.00,0.00,
"CA007024118","1973-11-21",41.00,24.08,56.00,0.00,
"CA007024118","1973-11-22",44.06,35.06,0.00,0.00,
"CA007024118","1973-11-23",44.06,33.98,0.00,0.00,
"CA007024118","1973-11-24",39.92,32.00,132.00,0.00,
"CA007024118","1973-11-25",39.02,30.02,0.00,0.00,
"CA007024118","1973-11-26",39.02,26.96,0.00,0.00,
"CA007024118","1973-11-27",42.98,28.94,81.00,15.00,
"CA007024118","1973-11-28",53.96,37.94,61.00,0.00,
"CA007024118","1973-11-29",39.92,37.04,0.00,0.00,
"CA007024118","1973-11-30",37.94,33.08,10.00,0.00,
"CA007024118","1973-12-01",32.00,28.94,0.00,0.00,
"CA007024118","1973-12-02",32.00,21.02,0.00,0.00,
"CA007024118","1973-12-03",42.08,26.96,0.00,0.00,
"CA007024118","1973-12-04",46.04,39.92,38.00,0.00,
"CA007024118","1973-12-05",48.92,37.04,168.00,0.00,
"CA007024118","1973-12-06",42.08,35.06,5.00,0.00,
"CA007024118","1973-12-07",26.96,24.98,0.00,0.00,
"CA007024118","1973-12-08",28.94,21.92,0.00,0.00,
"CA007024118","1973-12-09",37.04,24.08,135.00,0.00,
"CA007024118","1973-12-10",37.04,26.96,0.00,0.00,
"CA007024118","1973-12-11",33.98,32.00,0.00,0.00,
"CA007024118","1973-12-12",23.00,15.08,0.00,0.00,
"CA007024118","1973-12-13",35.96,17.96,122.00,46.00,
"CA007024118","1973-12-14",37.04,28.94,0.00,0.00,
"CA007024118","1973-12-15",15.98,10.94,15.00,15.00,
"CA007024118","1973-12-16",15.98,12.92,18.00,18.00,
"CA007024118","1973-12-17",15.08,8.06,284.00,284.00,
"CA007024118","1973-12-18",6.08,1.94,,,
"CA007024118","1973-12-19",10.04,-2.92,61.00,61.00,
"CA007024118","1973-12-20",37.04,6.98,211.00,211.00,
"CA007024118","1973-12-21",28.94,19.04,3.00,3.00,
"CA007024118","1973-12-22",19.04,3.02,99.00,99.00,
"CA007024118","1973-12-23",17.06,5.00,3.00,3.00,
"CA007024118","1973-12-24",8.06,-7.96,0.00,0.00,
"CA007024118","1973-12-25",42.98,-5.98,,0.00,
"CA007024118","1973-12-26",42.08,17.96,,0.00,
"CA007024118","1973-12-27",37.94,30.92,,0.00,
"CA007024118","1973-12-28",37.04,30.92,0.00,0.00,
"CA007024118","1973-12-29",37.94,30.92,0.00,0.00,
"CA007024118","1973-12-30",28.94,26.06,10.00,10.00,
"CA007024118","1973-12-31",28.04,19.94,33.00,33.00,
"CA007024118","1974-01-01",24.98,15.08,0.00,0.00,
"CA007024118","1974-01-02",28.04,3.92,0.00,0.00,
"CA007024118","1974-01-03",19.94,8.06,15.00,15.00,
"CA007024118","1974-01-04",26.06,14.00,0.00,0.00,
"CA007024118","1974-01-05",26.06,10.04,0.00,0.00,
"CA007024118","1974-01-06",23.00,19.04,18.00,18.00,
"CA007024118","1974-01-07",24.98,17.06,0.00,0.00,
"CA007024118","1974-01-08",1.04,-2.02,,,
"CA007024118","1974-01-09",-0.04,-4.00,,,
"CA007024118","1974-01-10",12.02,-2.02,,,
"CA007024118","1974-01-11",15.08,6.98,102.00,102.00,
"CA007024118","1974-01-12",10.94,3.02,0.00,0.00,
"CA007024118","1974-01-13",12.02,-5.08,0.00,0.00,
"CA007024118","1974-01-14",37.94,-2.02,56.00,0.00,
"CA007024118","1974-01-15",37.04,10.94,36.00,36.00,
"CA007024118","1974-01-16",-0.04,-4.00,15.00,15.00,
"CA007024118","1974-01-17",-2.92,-9.04,0.00,0.00,
"CA007024118","1974-01-18",17.06,-11.92,0.00,0.00,
"CA007024118","1974-01-19",14.00,-4.00,0.00,0.00,
"CA007024118","1974-01-20",32.00,-2.92,0.00,0.00,
"CA007024118","1974-01-21",39.02,8.96,163.00,0.00,
"CA007024118","1974-01-22",30.92,24.98,,,
"CA007024118","1974-01-23",28.94,21.02,,,
"CA007024118","1974-01-24",30.92,19.94,0.00,0.00,
"CA007024118","1974-01-25",30.02,26.96,20.00,20.00,
"CA007024118","1974-01-26",48.92,24.08,259.00,0.00,
"CA007024118","1974-01-27",48.02,21.02,0.00,0.00,
"CA007024118","1974-01-28",39.92,35.06,15.00,3.00,
"CA007024118","1974-01-29",35.06,30.92,0.00,0.00,
"CA007024118","1974-01-30",39.92,33.08,0.00,0.00,
"CA007024118","1974-01-31",46.94,33.08,15.00,0.00,
"CA007024118","1974-02-01",6.98,1.94,0.00,0.00,
"CA007024118","1974-02-02",1.94,-7.96,0.00,0.00,
"CA007024118","1974-02-03",1.94,-7.06,0.00,0.00,
"CA007024118","1974-02-04",5.00,-7.06,0.00,0.00,
"CA007024118","1974-02-05",8.96,-2.92,0.00,0.00,
"CA007024118","1974-02-06",14.00,1.94,0.00,0.00,
"CA007024118","1974-02-07",17.96,6.98,0.00,0.00,
"CA007024118","1974-02-08",15.98,6.08,0.00,0.00,
"CA007024118","1974-02-09",17.06,6.98,0.00,0.00,
"CA007024118","1974-02-10",21.02,3.92,0.00,0.00,
"CA007024118","1974-02-11",24.08,14.00,30.00,30.00,
"CA007024118","1974-02-12",33.98,8.06,0.00,0.00,
"CA007024118","1974-02-13",37.94,15.08,0.00,0.00,
"CA007024118","1974-02-14",3.02,-4.00,0.00,0.00,
"CA007024118","1974-02-15",14.00,-0.94,0.00,0.00,
"CA007024118","1974-02-16",26.06,1.94,3.00,3.00,
"CA007024118","1974-02-17",26.96,12.02,0.00,0.00,
"CA007024118","1974-02-18",26.06,8.96,0.00,0.00,
"CA007024118","1974-02-19",33.98,12.92,71.00,71.00,
"CA007024118","1974-02-20",35.06,24.98,0.00,0.00,
"CA007024118","1974-02-21",33.08,19.94,20.00,20.00,
"CA007024118","1974-02-22",39.92,21.02,312.00,0.00,
"CA007024118","1974-02-23",19.94,12.02,0.00,0.00,
"CA007024118","1974-02-24",15.98,6.08,0.00,0.00,
"CA007024118","1974-02-25",19.94,8.96,0.00,0.00,
"CA007024118","1974-02-26",28.04,12.92,0.00,0.00,
"CA007024118","1974-02-27",35.06,12.92,0.00,0.00,
"CA007024118","1974-02-28",42.98,30.92,0.00,0.00,
"CA007024118","1974-03-01",37.04,32.00,0.00,0.00,
"CA007024118","1974-03-02",24.98,17.06,0.00,0.00,
"CA007024118","1974-03-03",53.06,15.98,0.00,0.00,
"CA007024118","1974-03-04",48.92,37.94,381.00,0.00,
"CA007024118","1974-03-05",42.08,33.98,5.00,0.00,
"CA007024118","1974-03-06",53.06,33.08,0.00,0.00,
"CA007024118","1974-03-07",53.96,39.92,0.00,0.00,
"CA007024118","1974-03-08",28.04,19.04,0.00,0.00,
"CA007024118","1974-03-09",28.94,17.96,0.00,0.00,
"CA007024118","1974-03-10",28.94,24.08,0.00,0.00,
"CA007024118","1974-03-11",30.92,12.92,0.00,0.00,
"CA007024118","1974-03-12",24.08,10.04,0.00,0.00,
"CA007024118","1974-03-13",26.06,5.00,0.00,0.00,
"CA007024118","1974-03-14",33.98,15.08,0.00,0.00,
"CA007024118","1974-03-15",35.06,17.96,0.00,0.00,
"CA007024118","1974-03-16",35.06,26.06,89.00,46.00,
"CA007024118","1974-03-17",32.00,21.02,152.00,152.00,
"CA007024118","1974-03-18",30.02,19.04,10.00,10.00,
"CA007024118","1974-03-19",37.94,26.06,0.00,0.00,
"CA007024118","1974-03-20",19.94,8.96,0.00,0.00,
"CA007024118","1974-03-21",26.06,15.98,132.00,132.00,
"CA007024118","1974-03-22",33.08,17.06,0.00,0.00,
"CA007024118","1974-03-23",44.96,17.96,13.00,13.00,
"CA007024118","1974-03-24",26.96,21.02,0.00,0.00,
"CA007024118","1974-03-25",26.96,8.96,0.00,0.00,
"CA007024118","1974-03-26",33.98,14.00,13.00,13.00,
"CA007024118","1974-03-27",28.04,12.02,0.00,0.00,
"CA007024118","1974-03-28",15.98,10.94,0.00,0.00,
"CA007024118","1974-03-29",30.02,1.04,0.00,0.00,
"CA007024118","1974-03-30",33.98,17.96,30.00,0.00,
"CA007024118","1974-03-31",37.04,28.94,0.00,0.00,
"CA007024118","1974-04-01",39.92,33.08,64.00,0.00,
"CA007024118","1974-04-02",42.98,26.06,0.00,0.00,
"CA007024118","1974-04-03",51.98,37.04,127.00,0.00,
"CA007024118","1974-04-04",51.08,35.96,69.00,0.00,
"CA007024118","1974-04-05",46.94,39.02,0.00,0.00,
"CA007024118","1974-04-06",39.02,30.92,0.00,0.00,
"CA007024118","1974-04-07",35.06,26.96,86.00,86.00,
"CA007024118","1974-04-08",28.94,19.04,0.00,0.00,
"CA007024118","1974-04-09",26.96,19.94,0.00,0.00,
"CA007024118","1974-04-10",41.00,21.02,0.00,0.00,
"CA007024118","1974-04-11",,30.92,0.00,0.00,
"CA007024118","1974-04-12",,28.94,33.00,0.00,
"CA007024118","1974-04-13",,35.96,51.00,0.00,
"CA007024118","1974-04-14",,35.06,41.00,0.00,
"CA007024118","1974-04-15",,39.02,0.00,0.00,